[[{"header":{"parameterUnit":"m.s-1","parameterCategory":1,"la1":30.2991,"la2":30.254,"lo1":-89.0895,"lo2":-89.0444,"dy":0.0017,"dx":0.0017,"nx":28,"ny":28,"refTime":"2025-08-24T03:00:00:Z","depth":0,"parameterNumber":2,"parameterNumberName":"U-component_of_WINDS"},"data":[0,0,0,0,0,0,0,0,0,0,0,0,0,0,0,0,0,0,0,0,0,0,0,0,0,0,0,0,0,0,0,0,0,0,0,0,0,0,0,0,0,0,0,0,0,0,0,0,0,0,0,0,0,0,0,0,0,0,1.6245,1.6245,0,1.622,1.622,1.6219,1.6148,1.6146,1.6145,1.6143,1.612,1.612,1.6121,0,0,0,0,0,0,0,0,0,0,0,0,0,1.6235,1.6235,1.6245,1.6245,1.6245,1.622,1.622,1.6219,1.6148,1.6146,1.6144,1.6143,1.6119,1.612,1.6121,0,0,0,0,0,0,0,0,0,0,0,0,0,1.6227,1.6235,1.6245,1.6206,1.6202,1.622,1.622,1.6219,1.6149,1.6146,1.6144,1.6142,1.6119,1.612,1.6121,1.6176,0,0,1.6125,1.6126,0,0,0,0,0,0,0,0,1.6228,1.6228,1.6212,1.6209,1.6205,1.6185,1.6207,1.6205,1.6149,1.6169,1.6143,1.6141,1.6143,1.6142,1.6143,1.6175,1.6173,1.6125,1.6126,1.6127,1.6127,0,0,0,0,0,0,0,1.6228,1.6229,1.6235,1.6212,1.6208,1.6191,1.6187,1.6206,1.617,1.6167,1.6162,1.616,1.6141,1.6142,1.6142,1.6173,1.6125,1.6126,1.6127,1.6128,1.6249,1.6251,0,0,0,0,0,0,1.6234,1.6229,1.6236,1.6235,1.6211,1.6193,1.6189,1.6194,1.6169,1.6163,1.6162,1.6157,1.6141,1.614,1.6141,1.6203,1.6127,1.6128,1.6128,1.6247,1.625,1.6252,0,0,0,0,0,0,1.6234,1.6236,1.6237,1.6231,1.6229,1.6195,1.6201,1.6194,1.6195,1.6165,1.6158,1.6169,1.6139,1.6139,1.6167,1.6201,1.6128,1.6129,1.6244,1.6247,1.6251,1.6329,0,0,0,0,0,0,1.6234,1.6236,1.6256,1.6232,1.623,1.6264,1.6203,1.6195,1.6197,1.619,1.6171,1.6165,1.6137,1.6166,1.6169,1.6202,1.613,1.624,1.6245,1.625,1.6323,1.6335,1.6345,0,0,0,0,0,1.6234,1.6279,1.6257,1.6258,1.6254,1.6266,1.6265,1.6232,1.62,1.622,1.6201,1.6166,1.6197,1.617,1.6172,1.6206,1.6238,1.6244,1.6249,1.6318,1.6332,1.6344,0,0,0,0,0,0,1.6309,1.6275,1.625,1.6289,1.6281,1.6254,1.6278,1.6248,1.6249,1.6243,1.6201,1.6198,1.6232,1.6222,1.6192,1.6258,1.6212,1.6218,1.6263,1.6277,1.6287,1.629,1.6131,0,0,0,0,0,1.633,1.6342,1.6312,1.6348,1.6346,1.6313,1.6317,1.6291,1.6282,1.6279,1.6261,1.6254,1.6262,1.6269,1.6274,1.6321,1.6316,1.6345,1.6356,1.6365,1.6372,1.6397,1.641,1.6271,1.6271,1.6271,0,0,1.6373,1.6356,1.6366,1.6363,1.6354,1.6368,1.6311,1.6328,1.6338,1.6281,1.6307,1.6295,1.6284,1.6322,1.6338,1.6314,1.6409,1.6372,1.638,1.6381,1.6404,1.6417,1.6429,1.6274,1.6274,1.6273,0,0,1.6459,1.6447,1.6477,1.6469,1.6456,1.6433,1.6441,1.6419,1.6408,1.6433,1.6391,1.6403,1.6418,1.6412,1.6411,1.6496,1.6464,1.6499,1.6556,1.6581,1.6592,1.6601,1.6633,1.6644,1.6505,1.6505,1.6505,0,1.6515,1.6534,1.6496,1.6516,1.6517,1.6465,1.6495,1.6489,1.6479,1.6481,1.6454,1.6472,1.6461,1.6498,1.6518,1.6519,1.6527,1.6501,1.6593,1.6602,1.661,1.664,1.6652,1.651,1.6509,1.6509,1.6508,0,1.6604,1.6618,1.6644,1.6635,1.6638,1.6663,1.6629,1.6637,1.6611,1.6593,1.662,1.6604,1.6607,1.6613,1.6589,1.6647,1.6633,1.66,1.6554,1.6629,1.6656,1.6667,1.6516,1.6514,1.6513,1.6512,0,0,1.6738,1.6707,1.6717,1.6713,1.6694,1.6705,1.6728,1.6729,1.6738,1.6732,1.6751,1.6765,1.6735,1.6734,1.6708,1.673,1.6799,1.6695,1.6694,1.6716,1.6864,1.689,1.6903,1.6777,1.6779,1.6781,1.6865,0,1.6821,1.6858,1.6824,1.6868,1.6882,1.6832,1.6853,1.6844,1.6827,1.6836,1.6817,1.6828,1.6787,1.6786,1.6805,1.6787,1.6829,1.678,1.6796,1.6797,1.6802,1.6917,1.6944,1.7025,1.6876,1.6877,1.6879,0,1.6922,1.6921,1.6967,1.6946,1.695,1.6969,1.6968,1.6977,1.6966,1.6952,1.6952,1.692,1.6942,1.6896,1.6926,1.6894,1.6899,1.6891,1.6893,1.6894,1.6844,1.6923,1.7049,1.7062,1.6895,1.6893,1.6892,0,1.7017,1.7027,1.7055,1.7053,1.7029,1.7043,1.7034,1.7021,1.7025,1.7024,1.7026,1.7028,1.703,1.7033,1.7003,1.6972,1.7038,1.6989,1.7029,1.703,1.7046,1.7046,1.7176,1.7047,1.7046,1.7046,1.7046,0,1.7114,1.7144,1.7098,1.7116,1.7148,1.7109,1.7143,1.7128,1.7117,1.7132,1.709,1.7105,1.7064,1.7075,1.7052,1.7082,1.7082,1.7073,1.7067,1.7077,1.7079,1.7081,1.7075,1.7049,1.7049,1.7048,1.7048,0,1.7226,1.7196,1.7224,1.7199,1.7193,1.7218,1.7197,1.7213,1.7193,1.7212,1.7215,1.7183,1.7194,1.7164,1.7171,1.7155,1.7199,1.7183,1.7203,1.7198,1.724,1.7237,1.7378,1.7395,1.7253,1.7255,1.7256,0,1.729,1.7312,1.7289,1.7296,1.7289,1.73,1.7303,1.7265,1.727,1.726,1.7278,1.7285,1.7289,1.7309,1.7288,1.7293,1.7277,1.7326,1.7278,1.7289,1.728,1.728,1.7282,1.7337,1.7338,1.734,1.7341,0,1.7409,1.7393,1.7398,1.7399,1.7404,1.7402,1.7398,1.7407,1.7366,1.7375,1.7385,1.7388,1.7394,1.7402,1.7403,1.7394,1.7362,1.7356,1.7366,1.7378,1.7389,1.7385,1.7231,1.7353,1.7352,1.7351,1.7351,1.735,1.75,1.7517,1.7504,1.7512,1.7505,1.7502,1.7516,1.7497,1.7505,1.7507,1.7484,1.75,1.7489,1.7486,1.7481,1.7493,1.7471,1.7484,1.7488,1.7493,1.75,1.7386,1.7492,1.7492,1.7492,1.7491,1.7491,0,1.7617,1.7606,1.7613,1.7609,1.7616,1.7583,1.7577,1.7585,1.7599,1.7591,1.7596,1.7608,1.7616,1.7595,1.76,1.7614,1.7599,1.7616,1.7616,1.7615,1.7519,1.7511,1.7628,1.7628,1.7628,1.7628,1.7628,1.7628,1.7679,1.7707,1.769,1.7715,1.7703,1.7717,1.7717,1.7715,1.7709,1.7724,1.773,1.7716,1.7703,1.7707,1.7713,1.7707,1.7712,1.7734,1.7723,1.7635,1.7621,1.7609,1.7601,1.7735,1.7735,1.7818,1.7819,1.782]},{"header":{"parameterUnit":"m.s-1","parameterCategory":1,"la1":30.2991,"la2":30.254,"lo1":-89.0895,"lo2":-89.0444,"dy":0.0017,"dx":0.0017,"nx":28,"ny":28,"refTime":"2025-08-24T03:00:00:Z","depth":0,"parameterNumber":3,"parameterNumberName":"V-component_of_WINDS"},"data":[0,0,0,0,0,0,0,0,0,0,0,0,0,0,0,0,0,0,0,0,0,0,0,0,0,0,0,0,0,0,0,0,0,0,0,0,0,0,0,0,0,0,0,0,0,0,0,0,0,0,0,0,0,0,0,0,0,0,-2.7746,-2.7747,0,-2.7876,-2.7877,-2.7878,-2.7893,-2.7892,-2.7891,-2.789,-2.8018,-2.8023,-2.8027,0,0,0,0,0,0,0,0,0,0,0,0,0,-2.7506,-2.751,-2.7746,-2.7747,-2.7749,-2.7875,-2.7877,-2.7879,-2.7894,-2.7892,-2.789,-2.7889,-2.8017,-2.8022,-2.8028,0,0,0,0,0,0,0,0,0,0,0,0,0,-2.762,-2.7512,-2.7745,-2.7772,-2.7775,-2.7875,-2.7877,-2.7879,-2.7894,-2.7892,-2.789,-2.7888,-2.8015,-2.8022,-2.8029,-2.811,0,0,-2.805,-2.8053,0,0,0,0,0,0,0,0,-2.7614,-2.7629,-2.7766,-2.777,-2.7774,-2.7866,-2.784,-2.7956,-2.7894,-2.7849,-2.789,-2.7887,-2.7969,-2.798,-2.8008,-2.8116,-2.8121,-2.805,-2.8055,-2.8058,-2.8059,0,0,0,0,0,0,0,-2.7606,-2.7624,-2.7797,-2.7768,-2.7773,-2.7775,-2.779,-2.7862,-2.7918,-2.7853,-2.7854,-2.7869,-2.7971,-2.8001,-2.8011,-2.8123,-2.805,-2.8056,-2.8061,-2.8063,-2.8303,-2.8305,0,0,0,0,0,0,-2.7594,-2.7617,-2.7793,-2.7801,-2.7688,-2.7781,-2.7797,-2.7839,-2.7917,-2.7927,-2.7871,-2.787,-2.799,-2.8003,-2.8016,-2.8116,-2.8057,-2.8064,-2.8068,-2.8301,-2.8304,-2.8306,0,0,0,0,0,0,-2.7589,-2.7609,-2.7788,-2.7709,-2.7732,-2.7788,-2.7834,-2.7842,-2.7873,-2.7931,-2.7941,-2.7892,-2.7989,-2.8006,-2.8086,-2.812,-2.8067,-2.8073,-2.8298,-2.8302,-2.8305,-2.8316,0,0,0,0,0,0,-2.7582,-2.7607,-2.764,-2.771,-2.7736,-2.7857,-2.7836,-2.7846,-2.7885,-2.7885,-2.7954,-2.7963,-2.7989,-2.8076,-2.8093,-2.8129,-2.8079,-2.8296,-2.83,-2.8304,-2.8313,-2.8319,-2.8325,0,0,0,0,0,-2.7573,-2.7637,-2.7641,-2.7663,-2.7778,-2.7859,-2.7874,-2.7904,-2.7888,-2.792,-2.7958,-2.7961,-2.8114,-2.8084,-2.8104,-2.8142,-2.8293,-2.8299,-2.8303,-2.831,-2.8318,-2.8324,0,0,0,0,0,0,-2.7568,-2.7647,-2.7652,-2.7741,-2.7794,-2.7862,-2.7904,-2.7912,-2.7969,-2.7966,-2.7999,-2.8015,-2.8093,-2.8126,-2.8091,-2.8224,-2.8202,-2.8211,-2.82,-2.8208,-2.8214,-2.8204,-2.8085,0,0,0,0,0,-2.7578,-2.7638,-2.7703,-2.7775,-2.7801,-2.7848,-2.7884,-2.7903,-2.7958,-2.798,-2.8023,-2.8075,-2.8135,-2.8173,-2.8231,-2.8318,-2.8332,-2.8353,-2.8359,-2.8364,-2.8371,-2.8418,-2.8428,-2.8322,-2.8322,-2.8322,0,0,-2.7597,-2.7648,-2.7684,-2.7775,-2.7818,-2.7879,-2.7866,-2.7931,-2.7976,-2.7989,-2.8068,-2.8101,-2.8161,-2.8245,-2.8284,-2.8274,-2.8403,-2.837,-2.8373,-2.8378,-2.8424,-2.8434,-2.8443,-2.8326,-2.8325,-2.8325,0,0,-2.7664,-2.7709,-2.7774,-2.7817,-2.7882,-2.7913,-2.7928,-2.7996,-2.8019,-2.8099,-2.811,-2.8162,-2.8265,-2.8307,-2.8342,-2.8425,-2.8429,-2.8442,-2.8473,-2.8519,-2.8527,-2.8534,-2.8563,-2.8573,-2.845,-2.845,-2.845,0,-2.768,-2.7773,-2.7806,-2.787,-2.791,-2.7926,-2.7991,-2.8031,-2.8111,-2.8137,-2.8126,-2.8254,-2.8296,-2.8389,-2.8409,-2.8437,-2.8455,-2.8434,-2.8523,-2.8531,-2.8539,-2.8566,-2.8577,-2.8451,-2.8451,-2.8451,-2.845,0,-2.7789,-2.7853,-2.7897,-2.7976,-2.802,-2.8085,-2.8125,-2.8166,-2.8181,-2.8212,-2.8293,-2.8343,-2.8412,-2.8435,-2.845,-2.853,-2.8522,-2.8517,-2.8495,-2.8549,-2.8575,-2.8586,-2.8452,-2.8452,-2.8452,-2.8451,0,0,-2.7856,-2.7952,-2.7968,-2.8003,-2.8076,-2.8126,-2.819,-2.8259,-2.8292,-2.8347,-2.8401,-2.8487,-2.8483,-2.8522,-2.8541,-2.8581,-2.8642,-2.8571,-2.8573,-2.8581,-2.8732,-2.8735,-2.8747,-2.8646,-2.8648,-2.865,-2.8727,0,-2.7931,-2.8048,-2.8078,-2.8177,-2.8236,-2.8252,-2.8308,-2.8358,-2.8389,-2.8442,-2.8476,-2.8536,-2.8526,-2.855,-2.859,-2.8626,-2.8673,-2.8621,-2.8695,-2.8697,-2.8678,-2.8761,-2.8765,-2.8835,-2.8738,-2.8739,-2.8741,0,-2.8033,-2.8092,-2.8196,-2.8261,-2.8287,-2.8337,-2.8402,-2.8453,-2.851,-2.8529,-2.8573,-2.8589,-2.8655,-2.863,-2.8721,-2.8685,-2.8717,-2.8739,-2.8743,-2.875,-2.8721,-2.877,-2.8859,-2.8869,-2.8757,-2.8756,-2.8755,0,-2.8071,-2.8175,-2.8251,-2.8281,-2.8359,-2.8394,-2.8427,-2.8482,-2.8521,-2.8577,-2.8602,-2.8665,-2.8699,-2.8746,-2.8777,-2.8757,-2.8865,-2.8843,-2.8881,-2.8881,-2.8903,-2.8901,-2.8997,-2.8925,-2.8925,-2.8924,-2.8924,0,-2.815,-2.8214,-2.8269,-2.8316,-2.8386,-2.8421,-2.8489,-2.8523,-2.8572,-2.8624,-2.8642,-2.869,-2.8729,-2.8782,-2.8807,-2.8878,-2.8893,-2.8909,-2.8915,-2.8907,-2.8905,-2.8928,-2.8924,-2.8927,-2.8927,-2.8926,-2.8926,0,-2.8204,-2.8244,-2.8327,-2.8395,-2.8413,-2.8462,-2.8519,-2.8564,-2.8595,-2.8661,-2.8679,-2.8727,-2.8791,-2.8827,-2.8907,-2.8924,-2.9002,-2.9005,-2.8983,-2.8985,-2.9021,-2.9017,-2.9135,-2.9152,-2.9069,-2.907,-2.907,0,-2.8252,-2.8301,-2.8373,-2.841,-2.8445,-2.8504,-2.8544,-2.858,-2.862,-2.8688,-2.8725,-2.879,-2.8843,-2.8944,-2.8985,-2.9046,-2.9051,-2.9088,-2.906,-2.905,-2.905,-2.9046,-2.9051,-2.9092,-2.9093,-2.9094,-2.9094,0,-2.8332,-2.8349,-2.8407,-2.8471,-2.8519,-2.8571,-2.8623,-2.8652,-2.8695,-2.874,-2.8806,-2.8847,-2.8929,-2.8993,-2.9057,-2.909,-2.9099,-2.9103,-2.9115,-2.9107,-2.9092,-2.9099,-2.8995,-2.91,-2.9099,-2.9099,-2.9098,-2.9098,-2.8384,-2.8428,-2.8486,-2.8549,-2.8592,-2.864,-2.8685,-2.8723,-2.8779,-2.8849,-2.8866,-2.8935,-2.8989,-2.9077,-2.9111,-2.9164,-2.9158,-2.9175,-2.9179,-2.9183,-2.9184,-2.9084,-2.9176,-2.9176,-2.9176,-2.9176,-2.9176,0,-2.8464,-2.8502,-2.856,-2.8632,-2.8682,-2.8688,-2.8745,-2.8785,-2.8846,-2.8897,-2.895,-2.9025,-2.9087,-2.9133,-2.9196,-2.9229,-2.9235,-2.9245,-2.9242,-2.9249,-2.9187,-2.917,-2.9239,-2.9239,-2.9239,-2.9239,-2.9239,-2.9239,-2.8511,-2.8586,-2.861,-2.8706,-2.8743,-2.8812,-2.8844,-2.8888,-2.8928,-2.9012,-2.9064,-2.9094,-2.9143,-2.9209,-2.9265,-2.9277,-2.9299,-2.9308,-2.932,-2.9261,-2.9254,-2.9247,-2.9231,-2.9313,-2.9313,-2.9378,-2.9379,-2.9379]}]]